Regional Weather Roundup
Issued by NWS

Home | Current Version | Previous Version | Text Only | Print | Product List | Glossary On
Versions: 1 2 3 4 5 6 7 8 9 10 11 12 13 14 15 16 17 18 19 20 21 22 23 24 25 26 27
000
ASUS45 KREV 191510
RWRNV
NEVADA REGIONAL WEATHER ROUNDUP
NATIONAL WEATHER SERVICE RENO NV
800 AM PDT SAT APR 19 2014

NOTE: "FAIR" INDICATES FEW OR NO CLOUDS BELOW 12,000 FEET WITH NO
SIGNIFICANT WEATHER AND/OR OBSTRUCTIONS TO VISIBILITY.

NVZ001-003-004-191600-
WESTERN NEVADA

CITY           SKY/WX    TMP DP  RH WIND       PRES   REMARKS
RENO           MOSUNNY   52  40  63 CALM      30.03R
CARSON CITY    FAIR      50  37  62 CALM      30.05R
SLIDE MTN        N/A     34  27  75 W36         N/A
PYRAMID LAKE     N/A     55 N/A N/A SW1         N/A
FALLON         MOSUNNY   59  33  37 S6        29.99R
LOVELOCK       MOSUNNY   45  18  34 CALM      30.00R
HAWTHORNE      SUNNY     55  43  62 CALM      30.01R
$$

NVZ002-CAZ072-073-191600-
NORTHERN AND CENTRAL SIERRA

CITY           SKY/WX    TMP DP  RH WIND       PRES   REMARKS
S. LAKE TAHOE  SUNNY     38  33  82 S3        30.09R
TRUCKEE        FOG       32  32 100 CALM      30.10R VSB 1/4
SQUAW VLY 8000   N/A     39  32  75 VRB18       N/A
SUSANVILLE     SUNNY     46  32  57 CALM      30.02R
BLUE CANYON    SUNNY     51  42  71 VRB5      30.08R
MAMMOTH LAKES  FAIR      43  34  70 CALM      30.12S
BRIDGEPORT     FAIR      38  31  76 CALM      30.08R
$$

NVZ030-031-036-191600-
NORTHERN NEVADA

CITY           SKY/WX    TMP DP  RH WIND       PRES   REMARKS
ELKO           MOSUNNY   43  26  51 E5        30.05R
WINNEMUCCA     MOSUNNY   44  26  49 NE3       30.00R
WENDOVER       MOSUNNY   52  30  43 E5        30.03R
$$

NVZ035-037-191600-
CENTRAL NEVADA

CITY           SKY/WX    TMP DP  RH WIND       PRES   REMARKS
ELY            SUNNY     47  27  45 E6        30.08R
EUREKA           N/A     49  38  65 NW6       30.06R
$$

NVZ013-014-191600-
SOUTH CENTRAL NEVADA

CITY           SKY/WX    TMP DP  RH WIND       PRES   REMARKS
TONOPAH        MOSUNNY   50  35  56 N7        30.06R
$$

NVZ017-020-022-191600-
SOUTHERN NEVADA

CITY           SKY/WX    TMP DP  RH WIND       PRES   REMARKS
LAS VEGAS      MOSUNNY   68  41  37 CALM      29.93R
N. LAS VEGAS   SUNNY     67  42  40 NE6       29.96R
NELLIS AFB     SUNNY     67  43  42 E3        29.96R
HENDERSON      SUNNY     65  39  38 NW6       29.99R
MERCURY        SUNNY     61  35  37 SE6       29.99R
$$



USA.gov is the U.S. government's official web portal to all federal, state and local government web resources and services.